Overview Statistics Trail Chart Weather Telemetry Raw packets
 

This is the latest recevied weather packets stored in our database for station/object IK8SUT-10. If no packets are shown the sender has not sent any weather packets the latest 10 day(s).

<< 1 2 3 4 5 6 7 >>
Time Temp. Humidity Pressure Rain* Wind** Luminosity Snow
1788544723 32.22° C 37% 1019.1 hPa - - - -
1788543822 32.22° C 36% 1019.1 hPa - - - -
1788542941 32.22° C 35% 1018.9 hPa - - - -
1788542020 32.78° C 35% 1018.8 hPa - - - -
1788541120 32.78° C 34% 1018.7 hPa - - - -
1788540219 32.78° C 34% 1018.5 hPa - - - -
1788539318 32.78° C 36% 1018.5 hPa - - - -
1788538417 32.78° C 37% 1018.5 hPa - - - -
1788537516 32.78° C 37% 1018.4 hPa - - - -
1788536616 32.78° C 37% 1018.4 hPa - - - -
1788535715 32.22° C 36% 1018.3 hPa - - - -
1788534814 32.78° C 36% 1018.3 hPa - - - -
1788533913 32.22° C 37% 1018.3 hPa - - - -
1788533012 32.78° C 37% 1018.3 hPa - - - -
1788532131 32.78° C 39% 1018.4 hPa - - - -
1788531230 32.22° C 38% 1018.5 hPa - - - -
1788530329 32.22° C 38% 1018.6 hPa - - - -
1788529428 32.22° C 40% 1018.8 hPa - - - -
1788528527 32.22° C 43% 1018.7 hPa - - - -
1788527627 32.22° C 47% 1018.9 hPa - - - -
1788526726 32.22° C 48% 1019.1 hPa - - - -
1788525825 32.22° C 48% 1019.2 hPa - - - -
1788524924 32.22° C 47% 1019.5 hPa - - - -
1788524023 32.22° C 49% 1019.5 hPa - - - -
1788523123 32.22° C 48% 1019.6 hPa - - - -

* Rain since midnight (hover to see other rain measurements)
** Current wind speed in m/s (hover to see current wind gust speed)